This is the latest recevied weather packets stored in our database for station/object SR9NLI. If no packets are shown the sender has not sent any weather packets the latest 1 day(s).
| Time | Temp. | Humidity | Pressure | Rain* | Wind** | Luminosity | Snow |
|---|---|---|---|---|---|---|---|
| 1778030451 | 15° C | 100% | 948 hPa | - | 1.79 m/s, 182° | - | - |
| 1778030328 | 15° C | 100% | 947.8 hPa | - | 1.79 m/s, 192° | - | - |
| 1778030268 | 15° C | 100% | 947.8 hPa | - | 1.34 m/s, 197° | - | - |
| 1778030206 | 15° C | 100% | 947.9 hPa | - | 1.79 m/s, 198° | - | - |
| 1778030083 | 15.56° C | 100% | 947.9 hPa | - | 1.79 m/s, 187° | - | - |
| 1778029960 | 15.56° C | 100% | 947.9 hPa | - | 1.79 m/s, 190° | - | - |
| 1778029900 | 15.56° C | 100% | 947.9 hPa | - | 1.79 m/s, 192° | - | - |
| 1778029838 | 15.56° C | 100% | 947.9 hPa | - | 1.79 m/s, 196° | - | - |
| 1778029715 | 15.56° C | 100% | 947.9 hPa | - | 2.68 m/s, 190° | - | - |
| 1778029591 | 15.56° C | 100% | 948 hPa | - | 1.79 m/s, 191° | - | - |
| 1778029531 | 15.56° C | 100% | 948 hPa | - | 1.79 m/s, 198° | - | - |
| 1778029469 | 15.56° C | 100% | 947.9 hPa | - | 1.79 m/s, 193° | - | - |
| 1778029346 | 15.56° C | 100% | 948 hPa | - | 2.24 m/s, 187° | - | - |
| 1778029223 | 15° C | 100% | 948 hPa | - | 2.24 m/s, 188° | - | - |
| 1778029162 | 15° C | 100% | 947.9 hPa | - | 1.79 m/s, 191° | - | - |
| 1778029099 | 15° C | 100% | 948 hPa | - | 1.79 m/s, 190° | - | - |
| 1778028977 | 15° C | 100% | 948.1 hPa | - | 1.34 m/s, 202° | - | - |
| 1778028853 | 15° C | 100% | 948 hPa | - | 1.34 m/s, 187° | - | - |
| 1778028792 | 15.56° C | 100% | 948 hPa | - | 1.79 m/s, 188° | - | - |
| 1778028730 | 15.56° C | 100% | 948 hPa | - | 1.79 m/s, 191° | - | - |
| 1778028606 | 15.56° C | 100% | 948.1 hPa | - | 2.24 m/s, 182° | - | - |
| 1778028483 | 15.56° C | 100% | 948.1 hPa | - | 1.79 m/s, 177° | - | - |
| 1778028423 | 15.56° C | 100% | 948.2 hPa | - | 1.34 m/s, 179° | - | - |
| 1778028360 | 15.56° C | 100% | 948.2 hPa | - | 1.34 m/s, 194° | - | - |
| 1778028237 | 15.56° C | 100% | 948.1 hPa | - | 1.34 m/s, 206° | - | - |
* Rain since midnight (hover to see other rain measurements)
** Current wind speed in m/s (hover to see current wind gust speed)